sat.trackr.live / text

‹ back to catalog

2022-056B

NORAD 52717 · 2022-056B

PAYLOAD ACTIVE UNKNOWN

§ Identity

Operator
Country
PRC
Launch date
2022-05-20
Launch site
JSC
Launch vehicle
Mass (kg)
RCS (m²)

External: N2YO · Heavens-Above · Gunter

§ Orbital elements

Epoch: 2026-09-20T22:15:24.813792Z

Period
108.30 min
Inclination
86.0043°
Eccentricity
0.0045567
Mean motion
13.29598394 rev/d
Perigee alt
1,114.0 km
Apogee alt
1,182.6 km
Semi-major
7,526.4 km
B*
1.0176e-3
RAAN
61.7620°
Arg perigee
138.0353°
Mean anomaly
222.4290°
Rev number
21,103

§ Raw data

2022-056B1 52717U 22056B   26263.92737053  .00000490  00000+0  10176-2 0  99912 52717  86.0043  61.7620 0045567 138.0353 222.4290 13.29598394211038

JSON: /api/v1/satellites/52717 · /tle

For live sub-satellite position, see the globe view (requires WebGL).

§ Visibility from observer

Set your observer location to see the next 7 days of passes ≥ 10°. The values pass through the URL so the page stays shareable.

No JS? Fill the form by hand. The geolocation button needs JavaScript.